#timestamp,LO_Frequency,Hit,StdDev 
1635786015.2,286047000.2,N
1635786035.1,286046999.3,P
1635786036.0,286046999.3,N
1635786055.8,286047000.7,N
1635786075.7,286047000.0,N
1635786095.5,286047000.4,N
1635786115.3,286047000.5,N
1635786135.2,286047001.2,N
1635786155.9,286046998.9,N
1635786175.7,286047000.4,N
1635786195.6,286047001.1,N
1635786215.4,286047000.9,N
1635786235.3,286046998.4,N
1635786255.1,286046998.1,N
1635786256.0,286046998.1,N
1635786275.8,286047001.2,N
1635786295.7,286047000.4,N
1635786315.5,286046999.3,N
1635786335.3,286047000.3,N
1635786355.2,286046999.3,N
1635786375.0,286047001.2,N
1635786375.9,286047001.2,N
1635786395.8,286046998.1,N
1635786415.6,286046998.3,N
1635786435.4,286047000.8,N
1635786455.3,286046998.7,N
1635786475.1,286046998.7,N
1635786495.8,286046998.2,N
1635786515.7,286047000.8,N
1635786535.5,286047000.6,N
1635786555.4,286046999.7,N
1635786575.2,286047002.3,N
1635786595.0,286047002.4,N
1635786595.9,286047002.4,N
1635786615.8,286047000.1,N
1635786635.6,286047000.0,N
1635786655.4,286047000.0,N
1635786675.3,286047002.0,N
1635786695.1,286047000.5,N
1635786715.9,286047000.2,N
1635786735.7,286046999.8,N
1635786755.5,286047002.3,N
1635786775.4,286047002.5,N
1635786795.2,286047002.0,N
1635786815.0,286047002.2,N
1635786815.9,286047002.2,N
1635786835.8,286047002.1,N
1635786855.6,286047002.5,N
1635786875.5,286047004.4,Y
1635786895.3,286047001.3,P
1635786915.1,286047004.4,P
1635786935.9,286047003.9,N
1635786955.7,286047001.6,N
1635786975.5,286047004.0,N
1635786995.4,286047005.1,Y
1635787015.2,286047004.0,P
1635787035.1,286047001.5,N
1635787036.0,286047001.5,N
1635787055.8,286047001.7,N
1635787075.6,286047004.0,Y
1635787095.5,286046999.9,P
1635787115.3,286047001.5,N
1635787135.2,286047001.5,N
1635787155.9,286046999.7,N
1635787175.7,286046999.7,N
1635787195.6,286047002.1,N
1635787215.4,286047001.6,N
1635787235.2,286047001.8,N
1635787255.1,286047002.6,N
1635787256.0,286047002.6,N
1635787275.8,286047002.0,N
1635787295.7,286047002.7,N
1635787315.5,286047002.4,N
1635787335.3,286047002.6,N
1635787355.2,286047002.2,N
1635787375.0,286047002.6,N
1635787375.9,286047002.6,N
1635787395.7,286047001.8,N
1635787415.6,286047006.0,Y
1635787435.4,286047004.2,P
1635787455.3,286047004.3,P
1635787475.1,286047001.8,N
1635787476.0,286047001.8,N
1635787495.8,286047001.3,N
1635787515.7,286047003.5,N
1635787535.5,286047003.1,N
1635787555.3,286047003.1,N
1635787575.2,286047003.3,Y
1635787595.0,286047001.9,P
1635787595.9,286047001.9,P
1635787615.8,286047002.0,P
1635787635.6,286047001.3,Y
1635787655.4,286047002.6,P
1635787675.3,286047000.9,P
1635787695.1,286047000.7,N
1635787715.9,286047001.1,N
1635787735.7,286046998.2,N
1635787755.5,286047000.4,N
1635787775.4,286047001.7,N
1635787795.2,286047002.6,N
1635787815.0,286047002.6,N
1635787815.9,286047002.6,N
1635787835.8,286047000.2,N
1635787855.6,286047002.1,N
1635787875.5,286047002.6,N
1635787895.3,286047001.7,N
1635787915.1,286047001.5,N
1635787935.9,286047004.2,Y
1635787955.7,286047004.2,P
1635787975.5,286047004.3,P
1635787995.4,286047003.2,N
1635788015.2,286047004.0,Y
1635788035.1,286047000.2,P
1635788036.0,286047000.2,N
1635788055.8,286047000.3,N
1635788075.6,286047000.5,N
1635788095.5,286047002.7,N
1635788115.3,286047001.8,N
1635788135.1,286047002.2,N
1635788155.9,286047000.3,N
1635788175.7,286047000.3,N
1635788195.6,286047000.4,N
1635788215.4,286047000.2,N
1635788235.2,286047000.9,N
1635788255.1,286047000.2,N
1635788256.0,286047000.2,N
1635788275.8,286047002.8,N
1635788295.6,286047004.4,Y
1635788315.5,286047001.8,P
1635788335.3,286047004.4,P
1635788355.2,286047004.2,N
1635788375.9,286047003.6,N
1635788395.7,286047003.7,N
1635788415.6,286047004.3,Y
1635788435.4,286047000.3,P
1635788455.3,286047000.7,N
1635788475.1,286047000.3,N
1635788476.0,286047000.3,N
1635788495.8,286047000.7,N
1635788515.7,286046999.9,N
1635788535.5,286047004.3,Y
1635788555.4,286047001.7,P
1635788575.2,286047002.1,P
1635788595.0,286047001.3,N
1635788595.9,286047001.3,N
1635788615.8,286047002.7,Y
1635788635.6,286047000.9,P
1635788655.5,286047000.3,N
1635788675.3,286047000.3,N
1635788695.1,286047000.4,N
1635788715.9,286047000.0,N
1635788735.7,286047002.8,Y
1635788755.5,286047000.9,P
1635788775.4,286046999.9,N
1635788795.2,286047002.4,P
1635788815.1,286047001.8,N
1635788816.0,286047001.8,N
1635788835.8,286047001.5,N
1635788855.6,286047002.2,N
1635788875.5,286047002.5,Y
1635788895.3,286047000.4,P
1635788915.1,286047000.1,N
1635788965.9,286047000.5,E
1635788975.8,286046998.3,N
1635788995.7,286047000.7,P
1635789015.5,286046998.8,N
1635789035.3,286046998.4,N
1635789055.2,286047000.8,N
1635789075.0,286046998.5,N
1635789075.9,286046998.5,N
1635789095.8,286047000.2,N
1635789115.6,286047000.8,N
1635789135.4,286047001.2,N
1635789155.3,286046998.9,N
1635789175.1,286046998.1,N
1635789195.8,286047000.9,N
1635789215.7,286046998.9,N
1635789235.5,286046996.7,N
1635789255.4,286046996.5,N
1635789275.2,286046999.1,N
1635789295.0,286046998.6,N
1635789295.9,286046998.6,N
1635789315.8,286046998.5,N
1635789335.6,286047000.4,N
1635789355.4,286046998.5,N
1635789375.3,286046998.2,N
1635789395.1,286046998.5,N
1635789415.9,286047001.0,N
1635789435.7,286047000.4,N
1635789455.5,286047000.2,N
1635789475.4,286047002.6,N
1635789495.2,286047001.9,N
1635789515.0,286046999.8,N
1635789515.9,286046999.8,N
1635789535.8,286047002.2,N
1635789555.6,286047002.2,N
1635789575.5,286047002.3,N
1635789595.3,286047002.6,N
